Location: Peterborough
(44.3091°N, 78.3197°W)
Time: 17:41:22
(UTC-04:00)

Explorer 7 - Pass Details

Date: 26 March 2023
Orbit: 477 x 653 km, 50.3° (Epoch: 04 June)

Event Time Altitude Azimuth Distance (km) Brightness Sun altitude
Rises 19:46:18 0° 275° (W) 2,858 14.0 -3.2°
Reaches altitude 10° 19:48:47 10° 284° (WNW) 1,924 11.6 -3.6°
Maximum altitude 19:52:53 38° 352° (N) 884 8.1 -4.4°
Drops below altitude 10° 19:56:46 10° 62° (ENE) 1,815 9.0 -5.1°
Enters shadow 19:58:18 - 68° (ENE) 2,387 9.5 -5.3°
Sets 19:59:04 0° 70° (ENE) 2,675 - -5.5°
